Location: Kapuskasing
(49.3803°N, 82.4001°W)
Time: 10:58:53
(UTC-04:00)

RS-44 - Pass Details

Date: 22 March 2026
Orbit: 1175 x 1510 km, 82.5° (Epoch: 11 April)

Event Time Altitude Azimuth Distance (km) Brightness Sun altitude
Rises 03:45:47 0° 348° (NNW) 4,462 ? -32.8°
Reaches altitude 10° 03:48:34 10° 345° (NNW) 3,523 ? -32.5°
Maximum altitude 03:56:56 64° 267° (W) 1,614 ? -31.6°
Enters shadow 03:57:06 64° 262° (W) 1,616 ? -31.6°
